This demonstration page uses our WeatherBlox Daily Observations layout. Learn more.

Left ArrowRight Arrow

39.92423, -83.80882

Hourly Observations for January 29, 2018

Temp ( °F °C ) Dew Point ( °F °C ) Humidity (%) Winds ( mph kmh ) Pressure ( in mb ) Visibility ( mi km ) Precip ( " mm )
12:56 am 00:56 Clear 28 -2.2 27 -2.8 96 96 Calm 30.26 1025 10 16.0934 0 0
1:56 am 01:56 Clear 29 -1.7 28 -2.2 96 96 Calm 30.25 1024 10 16.0934 0 0
2:56 am 02:56 Clear 28 -2.2 27 -2.8 96 96 E 5 7 30.24 1024 10 16.0934 0 0
3:56 am 03:56 Clear 27 -2.8 26 -3.3 96 96 S 3 6 30.23 1024 10 16.0934 0 0
4:56 am 04:56 Partly Cloudy 27 -2.8 26 -3.3 96 96 Calm 30.22 1024 10 16.0934 0 0
5:56 am 05:56 Cloudy 31 -0.6 30 -1.1 96 96 WSW 6 9 30.23 1024 10 16.0934 0 0
6:56 am 06:56 Cloudy 32 0 29 -1.7 88 88 S 3 6 30.21 1023 10 16.0934 0 0
7:56 am 07:56 Mostly Cloudy 31 -0.6 28 -2.2 89 89 WNW 7 11 30.23 1024 10 16.0934 0 0
8:56 am 08:56 Cloudy 32 0 30 -1.1 92 92 W 7 11 30.22 1023 8 12.87472 0 0
9:30 am 09:30 Cloudy with Mist and Fog 34 1 32 0 93 93 WNW 8 13 30.24 1024 4 6.43736 0 0
9:38 am 09:38 Cloudy with Mist and Fog 34 1 30 -1 87 87 NW 8 13 30.24 1024 4 6.43736 0 0
9:56 am 09:56 Cloudy with Mist and Fog 34 1.1 30 -1.1 85 85 WNW 13 20 30.23 1024 4 6.43736 0 0
10:31 am 10:31 Cloudy with Light Snow 32 0 28 -2 87 87 WNW 13 20 30.27 1025 1.75 2.816345 0 0.0254
10:51 am 10:51 Cloudy with Light Snow 32 0 30 -1 93 93 WNW 15 24 30.27 1025 2.5 4.02335 0 0.0254
10:56 am 10:56 Cloudy with Light Snow 32 0 30 -1.1 92 92 WNW 14 22 30.24 1024 3 4.82802 0 0.0254
11:56 am 11:56 Cloudy with Light Snow 33 0.6 29 -1.7 85 85 WNW 14 22 30.23 1024 10 16.0934 0 0.0254
12:56 pm 12:56 Cloudy 33 0.6 29 -1.7 85 85 WNW 12 19 30.21 1023 9 14.48406 0 0.0254
1:56 pm 13:56 Cloudy with Light Snow 34 1.1 30 -1.1 85 85 WNW 15 24 30.19 1022 7 11.26538 0 0.0254
2:37 pm 14:37 Cloudy with Light Snow 34 1 28 -2 81 81 WNW 16 26 30.21 1023 7 11.26538 0 0.0254
2:48 pm 14:48 Cloudy with Light Snow 32 0 28 -2 87 87 WNW 12 19 30.21 1023 8 12.87472 0 0.0254
2:56 pm 14:56 Cloudy with Light Snow 32 0 28 -2.2 85 85 WNW 12 19 30.19 1022 9 14.48406 0 0.0254
3:56 pm 15:56 Cloudy with Light Snow 30 -1.1 27 -2.8 88 88 NW 17 28 30.2 1023 6 9.65604 0 0.0254
4:56 pm 16:56 Cloudy with Light Snow 29 -1.7 26 -3.3 89 89 NNW 15 24 30.22 1023 5 8.0467 0 0.0254
5:56 pm 17:56 Cloudy with Light Snow 29 -1.7 25 -3.9 85 85 NW 14 22 30.24 1024 9 14.48406 0 0.0254
6:36 pm 18:36 Cloudy with Light Snow 28 -2 25 -4 86 86 NNW 17 28 30.3 1026 9 14.48406 0 0.0254
6:45 pm 18:45 Cloudy with Light Snow 28 -2 25 -4 86 86 NNW 13 20 30.3 1026 9 14.48406 0 0.0254
6:56 pm 18:56 Cloudy with Light Snow 28 -2.2 24 -4.4 85 85 NNW 16 26 30.27 1025 7 11.26538 0 0.0254
7:15 pm 19:15 Cloudy with Light Snow 27 -3 25 -4 93 93 NW 16 26 30.33 1027 6 9.65604 0 0.0254
7:56 pm 19:56 Cloudy with Light Snow 27 -2.8 24 -4.4 89 89 NNW 13 20 30.29 1026 6 9.65604 0 0.0254
8:56 pm 20:56 Cloudy with Light Snow 26 -3.3 23 -5 88 88 NW 13 20 30.3 1026 8 12.87472 0 0.0254
9:56 pm 21:56 Cloudy with Light Snow 25 -3.9 21 -6.1 85 85 NNW 14 22 30.32 1027 9 14.48406 0 0.0254
10:36 pm 22:36 Cloudy with Light Snow 25 -4 19 -7 80 80 NW 18 30 30.39 1029 9 14.48406 0 0.0254
10:49 pm 22:49 Windy with Snow Likely 25 -4 19 -7 80 80 NNW 20 31 30.39 1029 9 14.48406 0 0.0254
10:56 pm 22:56 Cloudy with Light Snow 24 -4.4 19 -7.2 81 81 NNW 15 24 30.34 1028 9 14.48406 0 0.0254
11:56 pm 23:56 Cloudy with Light Snow 23 -5 19 -7.2 85 85 N 12 19 30.36 1028 5 8.0467 0 0.0254

Powered by AerisWeather